OH6NMY Weather Reports


Display with metric or nautical units.
time (UTC)temp
F
wind
direction
speed
MPH
gust
MPH
rain 1hr
in
rain 24hr
in
rain mn
in
humidity
%
barometer
mb
20260508092834 54 298 6.0 11.0 0.00 0.00 0.00 32 1026.6
20260508091724 53 313 9.0 15.0 0.00 0.00 0.00 33 1026.6
20260508090824 53 307 7.0 15.0 0.00 0.00 0.00 31 1026.5
20260508085924 52 315 9.0 11.0 0.00 0.00 0.00 33 1026.6
20260508085024 53 303 9.0 14.0 0.00 0.00 0.00 32 1026.4
20260508084336 52 324 8.0 11.0 0.00 0.00 0.00 33 1026.5
20260508083224 52 328 8.0 11.0 0.00 0.00 0.00 33 1026.4
20260508082324 52 317 8.0 11.0 0.00 0.00 0.00 34 1026.6
20260508081424 52 307 10.0 13.0 0.00 0.00 0.00 33 1026.2
20260508080524 51 292 7.0 13.0 0.00 0.00 0.00 33 1026.3
20260508075624 51 313 7.0 11.0 0.00 0.00 0.00 34 1026.3
20260508074724 52 335 7.0 13.0 0.00 0.00 0.00 37 1026.2
20260508073824 51 301 7.0 13.0 0.00 0.00 0.00 45 1026.2
20260508073134 49 292 6.0 11.0 0.00 0.00 0.00 49 1026.2
20260508072024 50 306 8.0 13.0 0.00 0.00 0.00 47 1025.8
20260508071124 50 286 5.0 9.0 0.00 0.00 0.00 52 1026.0
20260508070224 49 288 5.0 8.0 0.00 0.00 0.00 56 1025.7
20260508065324 48 306 5.0 7.0 0.00 0.00 0.00 58 1025.9
20260508064424 47 287 5.0 8.0 0.00 0.00 0.00 60 1025.7
20260508063524 48 312 4.0 6.0 0.00 0.00 0.00 61 1025.5
20260508062624 47 305 4.0 6.0 0.00 0.00 0.00 68 1025.6
20260508061724 46 299 3.0 4.0 0.00 0.00 0.00 68 1025.4
20260508060824 46 297 3.0 4.0 0.00 0.00 0.00 71 1025.4
20260508055924 45 291 4.0 8.0 0.00 0.00 0.00 72 1025.3
20260508055024 45 258 2.0 4.0 0.00 0.00 0.00 74 1025.3
20260508054124 45 276 3.0 6.0 0.00 0.00 0.00 74 1025.0
20260508053435 43 283 4.0 6.0 0.00 0.00 0.00 76 1025.4
20260508052324 42 282 3.0 4.0 0.00 0.00 0.00 78 1025.0
20260508051424 42 292 3.0 6.0 0.00 0.00 0.00 80 1024.7
20260508050524 41 273 3.0 6.0 0.00 0.00 0.00 81 1024.6
20260508045624 40 254 2.0 6.0 0.00 0.00 0.00 81 1024.7
20260508044724 40 249 3.0 4.0 0.00 0.00 0.00 83 1024.5
20260508043824 40 259 4.0 6.0 0.00 0.00 0.00 84 1024.4
20260508043136 39 262 3.0 6.0 0.00 0.00 0.00 84 1024.4
20260508042024 39 252 2.0 4.0 0.00 0.00 0.00 85 1024.4
20260508041124 38 247 1.0 2.0 0.00 0.00 0.00 85 1023.9
20260508040224 38 0 0.0 0.0 0.00 0.00 0.00 84 1024.1
20260508035324 37 0 0.0 0.0 0.00 0.00 0.00 85 1024.1
20260508034633 36 0 0.0 0.0 0.00 0.00 0.00 86 1024.0
20260508033524 34 0 0.0 0.0 0.00 0.00 0.00 88 1023.6
20260508032624 32 0 0.0 0.0 0.00 0.00 0.00 91 1023.8
20260508031724 30 0 0.0 0.0 0.00 0.00 0.00 91 1023.9
20260508030824 29 0 0.0 0.0 0.00 0.00 0.00 91 1023.7
20260508025924 29 0 0.0 0.0 0.00 0.00 0.00 90 1023.5
20260508025024 29 0 0.0 0.0 0.00 0.00 0.00 91 1023.5
20260508024334 29 0 0.0 0.0 0.00 0.00 0.00 91 1023.5
20260508023224 29 0 0.0 0.0 0.00 0.00 0.00 92 1023.4
20260508022324 28 0 0.0 0.0 0.00 0.00 0.00 91 1023.5
20260508021424 29 0 0.0 0.0 0.00 0.00 0.00 91 1023.1
20260508020524 29 0 0.0 0.0 0.00 0.00 0.00 91 1023.3
20260508015624 29 0 0.0 0.0 0.00 0.00 0.00 91 1023.1
20260508014724 29 0 0.0 0.0 0.00 0.00 0.00 91 1023.1
20260508013824 30 0 0.0 0.0 0.00 0.00 0.00 91 1022.8
20260508012924 30 0 0.0 0.0 0.00 0.00 0.00 90 1023.0
20260508012024 31 0 0.0 0.0 0.00 0.00 0.00 89 1022.6
20260508011124 32 247 0.0 2.0 0.00 0.00 0.00 89 1022.4
20260508010435 33 247 0.0 2.0 0.00 0.00 0.00 88 1022.4
20260508005324 34 249 2.0 4.0 0.00 0.00 0.00 87 1022.5
20260508004424 34 249 2.0 2.0 0.00 0.00 0.00 87 1022.4
20260508003524 34 251 2.0 4.0 0.00 0.00 0.00 87 1022.3
20260508002624 34 256 3.0 4.0 0.00 0.00 0.00 86 1022.3
20260508001724 34 251 1.0 4.0 0.00 0.00 0.00 86 1022.0
20260508000824 35 263 1.0 2.0 0.00 0.00 0.00 85 1022.0
20260507235924 35 270 1.0 2.0 0.00 0.00 0.00 85 1022.0
20260507235024 35 0 0.0 0.0 0.00 0.00 0.00 84 1022.0
20260507234336 35 270 1.0 4.0 0.00 0.00 0.00 84 1021.9
20260507233224 35 268 2.0 4.0 0.00 0.00 0.00 83 1021.6
20260507232324 36 288 3.0 4.0 0.00 0.00 0.00 81 1021.6
20260507231424 36 286 4.0 7.0 0.00 0.00 0.00 80 1021.6
20260507230524 36 276 2.0 4.0 0.00 0.00 0.00 80 1021.4
20260507225624 36 274 3.0 4.0 0.00 0.00 0.00 79 1021.5
20260507224935 36 264 3.0 4.0 0.00 0.00 0.00 79 1021.2
20260507224038 36 270 2.0 4.0 0.00 0.00 0.00 78 1021.4
20260507223135 36 271 3.0 4.0 0.00 0.00 0.00 78 1021.1
20260507222024 36 270 2.0 4.0 0.00 0.00 0.00 77 1021.2
20260507221124 36 276 3.0 4.0 0.00 0.00 0.00 77 1021.0
20260507220224 36 268 2.0 4.0 0.00 0.00 0.00 76 1021.1
20260507215324 36 270 0.0 2.0 0.00 0.00 0.00 76 1020.9
20260507214424 36 284 0.0 2.0 0.00 0.00 0.00 76 1020.7
20260507213524 36 285 2.0 6.0 0.00 0.00 0.00 75 1020.7
20260507212837 36 310 0.0 6.0 0.00 0.00 0.00 76 1020.7
20260507211724 37 264 1.0 2.0 0.00 0.00 0.00 75 1020.7
20260507210824 37 0 0.0 0.0 0.00 0.00 0.00 74 1020.6
20260507205924 37 0 0.0 0.0 0.00 0.00 0.00 74 1020.2
20260507205024 37 0 0.0 0.0 0.00 0.00 0.00 73 1020.3
20260507204124 38 270 0.0 2.0 0.00 0.00 0.00 73 1020.3
20260507203435 38 270 0.0 2.0 0.00 0.00 0.00 74 1020.2
20260507202538 38 0 0.0 0.0 0.00 0.00 0.00 73 1020.1
20260507201635 38 0 0.0 0.0 0.00 0.00 0.00 72 1020.0
20260507200737 39 279 0.0 2.0 0.00 0.00 0.00 71 1019.9
20260507195624 39 292 0.0 2.0 0.00 0.00 0.00 70 1019.8
20260507194724 40 292 1.0 4.0 0.00 0.00 0.00 68 1019.8
20260507193824 40 292 2.0 4.0 0.00 0.00 0.00 67 1019.5
20260507192924 41 295 4.0 7.0 0.00 0.00 0.00 66 1019.6
20260507192024 41 308 5.0 7.0 0.00 0.00 0.00 65 1019.4
20260507191124 42 301 5.0 7.0 0.00 0.00 0.00 65 1019.6
20260507190224 42 306 4.0 6.0 0.00 0.00 0.00 64 1019.2
20260507185324 42 312 4.0 4.0 0.00 0.00 0.00 64 1019.2
20260507184424 42 310 5.0 7.0 0.00 0.00 0.00 63 1019.3
20260507183524 43 304 4.0 4.0 0.00 0.00 0.00 61 1019.1
20260507182624 44 317 5.0 11.0 0.00 0.00 0.00 60 1018.9
20260507181724 44 315 9.0 13.0 0.00 0.00 0.00 59 1018.7
20260507181033 44 314 7.0 13.0 0.00 0.00 0.00 58 1018.8
20260507175924 45 313 7.0 11.0 0.00 0.00 0.00 56 1018.4
20260507175024 45 305 8.0 11.0 0.00 0.00 0.00 54 1018.6
20260507174124 45 300 8.0 13.0 0.00 0.00 0.00 53 1018.3
20260507173224 46 311 11.0 14.0 0.00 0.00 0.00 51 1018.3
20260507172535 46 311 10.0 14.0 0.00 0.00 0.00 50 1018.2
20260507171637 46 311 11.0 15.0 0.00 0.00 0.00 50 1018.2
20260507170524 46 292 10.0 14.0 0.00 0.00 0.00 52 1017.9
20260507165624 47 305 11.0 15.0 0.00 0.00 0.00 49 1018.0
20260507164724 47 294 10.0 15.0 0.00 0.00 0.00 49 1017.9
20260507163824 47 310 9.0 13.0 0.00 0.00 0.00 48 1017.7
20260507162924 47 297 10.0 14.0 0.00 0.00 0.00 47 1017.6
20260507162024 47 293 12.0 15.0 0.00 0.00 0.00 45 1017.5
20260507161124 47 304 11.0 14.0 0.00 0.00 0.00 45 1017.4
20260507160224 48 312 12.0 14.0 0.00 0.00 0.00 45 1017.4
20260507155533 48 296 10.0 16.0 0.00 0.00 0.00 44 1017.2
20260507154424 48 309 12.0 16.0 0.00 0.00 0.00 45 1017.2
20260507153524 49 301 12.0 16.0 0.00 0.00 0.00 45 1017.2
20260507152623 49 312 11.0 16.0 0.00 0.00 0.00 43 1017.0
20260507151938 49 311 11.0 14.0 0.00 0.00 0.00 43 1017.0
20260507150824 49 297 14.0 17.0 0.00 0.00 0.00 41 1016.9
20260507145923 49 302 14.0 18.0 0.00 0.00 0.00 40 1016.5
20260507145024 50 302 13.0 17.0 0.00 0.00 0.00 41 1016.7
20260507144337 49 291 13.0 18.0 0.00 0.00 0.00 40 1016.5
20260507143224 49 295 14.0 16.0 0.00 0.00 0.00 46 1016.3
20260507142324 50 290 14.0 23.0 0.00 0.00 0.00 47 1016.3
20260507141634 50 294 14.0 23.0 0.00 0.00 0.00 47 1016.3
20260507140524 51 290 12.0 15.0 0.00 0.00 0.00 45 1016.4
20260507135623 51 272 11.0 15.0 0.00 0.00 0.00 43 1016.3
20260507134724 51 292 12.0 18.0 0.00 0.00 0.00 42 1016.0
20260507133824 51 263 12.0 17.0 0.00 0.00 0.00 47 1015.7
20260507132924 51 259 11.0 15.0 0.00 0.00 0.00 48 1015.9
20260507132024 49 241 12.0 16.0 0.00 0.00 0.00 48 1015.9
20260507131124 50 248 10.0 15.0 0.00 0.00 0.00 45 1015.6
20260507130224 50 272 10.0 14.0 0.00 0.00 0.00 49 1016.0
20260507125324 51 273 8.0 11.0 0.00 0.00 0.00 48 1016.0
20260507124637 49 261 9.0 16.0 0.00 0.00 0.00 51 1015.8
20260507123524 50 230 7.0 9.0 0.00 0.00 0.00 48 1015.9
20260507122624 50 229 7.0 11.0 0.00 0.00 0.00 48 1015.8
20260507121724 50 245 10.0 17.0 0.00 0.00 0.00 46 1015.8
20260507120824 49 263 8.0 13.0 0.00 0.00 0.00 49 1015.8
20260507115924 49 263 11.0 16.0 0.00 0.00 0.00 47 1016.0
20260507115024 49 266 11.0 17.0 0.00 0.00 0.00 46 1015.9
20260507114124 51 246 10.0 14.0 0.00 0.00 0.00 44 1015.7
20260507113224 51 229 9.0 13.0 0.00 0.00 0.00 42 1015.8
20260507112324 50 249 8.0 20.0 0.00 0.00 0.00 41 1015.9
20260507111424 49 259 8.0 20.0 0.00 0.00 0.00 38 1016.1
20260507110524 50 259 9.0 15.0 0.00 0.00 0.00 35 1015.9
20260507105623 49 228 7.0 9.0 0.00 0.00 0.00 36 1015.9
20260507104724 49 259 8.0 13.0 0.00 0.00 0.00 36 1015.6
20260507103824 49 227 6.0 13.0 0.00 0.00 0.00 35 1015.8
20260507102924 50 218 5.0 7.0 0.00 0.00 0.00 35 1015.6
20260507102024 50 228 4.0 6.0 0.00 0.00 0.00 35 1015.9
20260507101124 50 210 4.0 6.0 0.00 0.00 0.00 35 1015.5
20260507100224 50 214 4.0 7.0 0.00 0.00 0.00 35 1015.6
20260507095324 49 194 8.0 11.0 0.00 0.00 0.00 34 1015.5
20260507094424 49 175 8.0 15.0 0.00 0.00 0.00 34 1015.7
20260507093524 49 171 5.0 9.0 0.00 0.00 0.00 31 1015.9